Wind_Speed
75 71 68 69 71 69 70 64 63 61 58 58 56 56 54 54 55 52 50 49 48 49 48 49 47 45 50 52 53 49 47 50 48 53 51 45 48 48 48 45 49 48 48 51 55
77 75 76 74 73 72 73 74 70 66 63 61 61 60 57 56 54 51 54 54 57 56 53 52 54 54 56 54 52 55 53 54 52 54 52 45 45 40 45 47 59 64 62 65 65
78 74 77 78 79 73 71 72 72 72 68 64 59 61 63 64 62 55 57 58 58 58 58 57 57 59 56 53 55 58 56 54 55 55 51 54 55 60 58 62 65 65 62 62 62
83 84 82 80 78 80 75 73 74 75 71 70 66 64 65 67 67 64 64 65 64 62 62 60 60 60 56 53 59 61 60 60 59 52 56 57 53 54 55 57 58 61 54 66 66
87 85 87 86 86 83 81 80 77 74 72 72 68 70 69 66 71 65 65 66 68 69 68 66 65 61 60 63 62 55 56 59 61 62 63 60 60 60 56 61 62 70 67 72 72
95 91 89 89 90 90 88 86 84 83 80 81 78 74 73 71 77 69 71 71 69 69 71 73 74 73 70 69 68 67 70 70 72 69 71 70 69 67 69 72 71 71 72 74 76
103 99 95 91 91 94 93 92 90 90 88 88 86 83 80 77 78 76 74 75 76 78 77 79 79 79 80 76 75 78 74 73 74 74 73 72 68 69 72 74 71 76 77 74 76
104 105 104 102 94 96 98 94 94 94 93 93 91 91 83 91 88 86 82 84 82 79 78 75 78 79 79 80 76 73 73 71 73 73 73 76 71 76 75 74 72 78 76 75 72
109 107 107 108 104 99 99 102 100 96 95 95 95 94 94 95 93 92 93 91 89 88 89 89 88 84 80 78 78 79 80 82 80 79 77 78 72 78 80 78 74 77 77 78 81
112 110 109 107 108 104 104 100 102 101 97 96 97 96 97 96 97 98 94 94 97 96 92 91 92 93 91 93 87 86 80 76 78 82 81 82 79 83 84 83 80 78 79 79 78
116 115 112 110 111 109 108 109 105 103 102 100 101 99 99 101 100 98 97 97 98 98 98 96 92 92 96 97 92 88 87 86 84 86 86 86 81 80 80 79 77 76 80 77 70
119 124 120 119 117 116 114 113 111 110 107 104 103 99 100 95 94 98 99 96 97 98 97 99 97 96 96 98 97 96 95 91 93 91 87 82 76 77 78 79 77 71 71 70 70
116 123 124 124 124 121 120 117 114 115 112 111 106 103 105 100 98 95 93 98 97 97 99 98 103 99 99 102 99 97 96 96 93 91 90 87 79 82 79 74 74 73 71 74 70
106 106 111 120 126 122 125 120 121 121 118 110 112 106 109 108 105 105 107 101 99 99 102 100 101 103 102 102 102 99 98 95 90 92 87 90 81 79 77 82 78 76 78 75 73
104 102 107 109 114 117 124 124 124 125 123 115 113 113 110 112 109 112 111 109 105 103 101 100 102 102 100 101 102 100 99 97 92 93 92 90 90 77 81 85 92 86 77 77 79
106 109 107 106 107 107 109 121 128 126 127 122 120 117 116 112 115 113 114 113 110 108 104 105 104 103 104 103 103 105 103 104 102 101 97 92 92 84 89 92 87 86 84 80 80
112 113 110 111 110 104 106 107 109 116 125 127 123 123 120 119 116 115 118 117 117 115 111 108 109 109 108 109 109 109 109 111 110 108 103 105 105 94 100 91 88 92 88 84 80
122 119 114 114 113 112 112 110 105 102 108 109 111 115 118 116 113 110 119 121 123 121 115 113 115 114 110 112 116 116 115 115 116 114 113 113 106 102 103 94 84 91 93 90 85
126 126 121 119 118 116 117 115 104 110 109 104 108 106 110 109 108 109 107 110 111 112 114 116 117 115 111 112 115 118 119 119 117 120 114 107 98 94 96 104 93 91 93 91 89
133 129 127 124 122 122 124 117 113 110 109 110 112 110 109 106 105 106 105 105 106 106 106 113 112 114 113 115 112 109 115 113 103 99 100 95 88 93 102 105 96 89 94 98 95
133 133 131 130 128 129 126 118 119 113 111 113 113 115 115 111 108 107 110 103 103 100 98 97 96 104 94 100 104 99 100 106 101 99 101 106 104 101 106 108 102 99 105 103 100
134 132 128 126 129 132 125 118 116 116 113 112 113 116 114 115 113 112 112 108 97 99 99 98 98 99 104 102 105 106 109 109 104 108 112 110 109 104 111 114 115 114 115 109 107
134 135 133 132 131 128 118 116 117 117 113 114 116 113 114 115 114 116 114 110 104 105 104 101 107 105 109 105 114 113 114 110 111 114 116 123 117 115 121 121 122 127 125 117 118
127 126 127 132 129 126 122 123 121 118 119 117 117 114 114 115 113 114 115 111 108 108 105 105 102 103 106 117 126 122 118 116 118 122 123 127 129 125 123 129 133 135 134 129 123
124 123 126 128 129 127 125 123 126 121 124 120 115 116 116 114 114 113 113 111 106 108 106 108 106 108 103 112 128 131 129 122 127 129 133 131 134 127 132 137 133 131 129 123 117
119 123 123 126 128 128 126 125 124 120 124 124 119 121 116 117 117 116 112 111 110 111 110 109 109 110 106 111 115 117 113 113 117 117 123 122 118 119 124 121 116 114 114 111 112
111 115 120 119 120 124 121 120 120 121 121 124 121 121 118 119 116 118 115 116 114 113 112 112 113 114 106 113 117 113 102 111 113 114 115 113 114 113 114 112 109 106 106 105 102
Wind_Direction
253 252 254 254 255 251 247 248 255 260 257 260 261 259 261 266 257 261 266 265 269 267 268 267 268 272 280 276 283 280 286 286 288 286 289 284 281 282 279 278 281 284 290 298 299
251 253 255 253 252 253 251 250 248 250 256 255 256 254 255 256 258 260 263 260 263 265 267 268 269 275 279 274 275 279 279 286 289 289 285 275 270 274 283 288 295 299 301 300 300
252 252 251 253 250 250 249 252 251 250 248 249 251 254 254 256 254 255 257 260 261 263 266 272 273 272 280 280 281 283 279 281 281 279 280 279 280 285 283 289 290 292 297 298 302
250 252 250 251 250 253 249 249 254 253 252 251 248 252 257 259 260 257 258 258 259 263 266 271 272 277 277 277 279 277 275 276 276 279 278 281 286 287 285 284 284 288 295 298 302
247 250 252 251 253 251 252 252 252 256 259 251 253 254 256 260 262 257 261 263 263 266 264 266 269 270 271 272 269 268 269 269 269 271 276 277 279 279 284 284 289 292 295 297 300
250 251 250 253 251 253 257 254 252 250 249 250 251 251 255 259 263 261 262 262 262 265 265 265 263 262 263 264 267 266 268 270 269 270 272 274 278 280 282 282 286 287 291 295 296
250 252 252 250 252 251 252 256 255 252 252 249 249 249 252 253 255 257 257 259 263 265 266 260 260 262 265 267 269 271 271 272 272 274 275 274 279 279 279 280 283 287 289 291 293
252 252 252 253 253 253 249 251 253 254 256 256 251 250 249 254 252 254 254 255 255 255 256 261 267 269 271 272 269 266 267 270 274 274 275 277 279 280 280 282 285 286 288 291 291
252 249 249 252 253 252 252 252 253 251 251 254 257 255 255 258 258 260 259 259 257 257 257 261 262 265 267 267 266 266 268 272 274 272 274 277 277 278 283 287 289 290 291 291 289
251 249 250 250 251 252 252 253 253 252 253 254 253 256 257 258 260 261 262 261 262 262 263 264 263 265 266 267 268 270 274 274 272 271 272 274 278 281 284 284 286 287 289 288 288
251 252 252 252 251 253 254 253 254 252 253 253 256 257 256 259 259 261 263 263 261 262 262 264 265 264 264 267 271 271 274 275 275 276 278 278 278 281 283 286 286 287 289 286 287
250 252 253 252 251 253 253 254 254 252 252 254 256 258 257 260 262 262 262 261 261 261 263 264 265 265 266 268 268 271 274 275 274 275 279 279 279 282 285 284 286 287 286 285 286
249 252 254 250 251 253 252 255 255 255 254 255 254 257 260 259 260 263 260 263 262 262 262 264 263 264 266 268 269 271 273 275 276 278 277 277 280 283 283 283 283 283 283 283 281
252 252 254 250 252 254 255 254 255 255 256 254 256 257 258 260 261 264 264 264 263 264 262 261 264 264 266 267 269 271 272 274 276 276 277 277 278 280 280 282 283 281 284 282 278
252 251 254 254 251 251 252 254 254 258 256 255 258 259 260 259 260 263 266 265 265 264 265 265 265 266 266 268 271 271 272 275 277 279 279 279 277 275 280 282 284 287 281 279 278
252 251 254 254 254 252 253 253 253 257 257 257 258 259 260 260 261 260 264 266 266 266 267 266 265 264 267 269 271 273 275 275 276 276 278 278 277 278 279 282 281 281 281 280 282
253 253 253 255 255 256 254 254 254 255 258 258 261 258 260 262 262 262 264 266 266 266 266 267 266 264 265 267 270 272 275 275 276 278 278 277 277 279 280 281 281 280 283 282 282
253 253 253 255 256 257 257 257 256 258 258 258 261 260 257 261 262 265 267 266 264 264 265 267 268 267 269 269 272 274 275 278 278 277 280 280 278 280 279 282 281 280 284 283 282
251 253 254 255 256 257 258 257 257 258 260 261 262 263 260 259 261 261 261 264 265 266 266 266 267 266 270 271 273 275 275 277 279 280 280 282 284 280 281 280 282 282 284 283 282
249 251 252 254 254 257 258 259 259 259 260 262 264 263 263 260 262 261 261 263 264 265 265 267 269 269 271 272 274 276 277 277 278 277 278 278 272 272 276 280 283 281 278 274 274
250 251 252 252 254 255 256 259 260 259 260 260 262 263 266 264 263 263 262 262 263 265 264 264 261 269 266 265 268 269 263 269 269 268 265 274 276 271 275 279 282 279 278 277 278
252 254 253 254 254 254 257 258 257 259 259 260 259 262 263 263 264 266 267 262 261 259 260 260 263 260 265 263 262 264 263 267 265 265 267 272 272 271 272 275 277 275 275 275 274
248 250 250 255 256 254 254 255 256 257 257 259 259 259 261 262 264 266 265 264 264 262 260 260 257 259 259 259 259 260 262 264 264 264 267 269 271 269 271 274 273 275 276 276 277
245 246 248 251 253 252 254 254 254 257 257 259 259 260 260 259 261 263 265 266 266 265 265 263 261 260 257 257 259 260 261 262 263 265 267 269 271 269 270 272 273 275 277 277 275
242 242 243 247 250 251 252 254 253 256 256 256 259 259 257 258 259 260 263 263 264 264 264 265 266 264 261 258 258 261 261 262 267 270 271 269 270 273 272 271 274 274 277 276 276
240 243 243 244 245 248 249 253 249 250 252 253 255 255 254 256 258 258 260 261 261 263 264 264 267 266 265 266 265 263 266 270 271 271 270 272 273 273 272 273 274 275 275 274 274
240 243 243 244 244 246 247 248 248 248 251 253 253 253 253 256 257 257 258 261 262 264 264 264 264 264 265 266 266 270 274 272 273 273 275 276 276 276 276 276 275 274 273 274 275
Height
10792 10796 10799 10801 10805 10808 10810 10813 10817 10821 10825 10828 10831 10832 10834 10838 10840 10841 10845 10846 10847 10848 10848 10849 10850 10850 10852 10853 10853 10851 10852 10850 10852 10849 10847 10850 10843 10841 10838 10835 10829 10826 10827 10827 10827
10779 10782 10785 10788 10792 10796 10799 10801 10804 10808 10814 10816 10819 10821 10822 10824 10827 10830 10833 10836 10837 10838 10839 10839 10840 10840 10842 10843 10844 10842 10842 10840 10842 10842 10840 10843 10838 10836 10830 10830 10822 10820 10820 10817 10816
10763 10768 10772 10775 10778 10782 10785 10788 10793 10798 10800 10804 10807 10809 10811 10813 10813 10824 10821 10824 10825 10827 10828 10829 10830 10831 10832 10834 10835 10833 10832 10830 10831 10833 10832 10832 10832 10827 10827 10824 10816 10811 10813 10807 10805
10745 10750 10755 10761 10765 10769 10773 10776 10779 10784 10788 10791 10794 10796 10799 10800 10801 10808 10810 10811 10813 10814 10817 10818 10818 10820 10822 10826 10825 10825 10824 10823 10825 10826 10821 10823 10826 10821 10819 10815 10811 10802 10807 10797 10796
10727 10733 10738 10743 10748 10755 10759 10763 10767 10770 10772 10777 10780 10783 10787 10791 10786 10797 10796 10798 10801 10802 10804 10805 10806 10809 10811 10813 10813 10812 10812 10811 10811 10812 10814 10813 10813 10813 10813 10802 10803 10793 10798 10790 10789
10708 10715 10721 10726 10731 10736 10742 10746 10750 10754 10756 10761 10766 10769 10771 10777 10770 10782 10782 10785 10787 10788 10790 10791 10793 10794 10795 10797 10798 10799 10800 10799 10799 10798 10800 10803 10801 10801 10797 10791 10793 10786 10784 10782 10779
10690 10696 10702 10707 10712 10717 10722 10726 10730 10736 10740 10743 10748 10753 10761 10758 10760 10764 10769 10773 10773 10773 10775 10776 10778 10778 10782 10782 10785 10783 10788 10786 10784 10784 10785 10787 10795 10786 10782 10779 10783 10775 10773 10770 10768
10670 10674 10680 10686 10692 10697 10702 10707 10712 10716 10719 10723 10729 10736 10749 10735 10743 10746 10751 10754 10758 10759 10762 10762 10763 10765 10766 10766 10769 10767 10771 10772 10770 10773 10772 10770 10782 10772 10769 10769 10772 10761 10760 10757 10754
10646 10653 10658 10663 10670 10677 10681 10687 10693 10694 10700 10705 10711 10716 10726 10723 10726 10726 10733 10735 10742 10744 10746 10748 10749 10748 10751 10750 10752 10751 10755 10755 10758 10755 10759 10756 10766 10757 10755 10755 10755 10746 10745 10742 10739
10623 10630 10635 10643 10649 10654 10659 10665 10670 10674 10681 10684 10691 10693 10701 10704 10705 10710 10715 10718 10721 10725 10728 10729 10732 10734 10735 10730 10737 10733 10738 10742 10741 10739 10746 10742 10750 10742 10737 10740 10738 10732 10728 10727 10724
10602 10606 10613 10621 10626 10631 10637 10643 10647 10654 10661 10661 10670 10672 10681 10684 10687 10692 10695 10697 10701 10706 10708 10710 10716 10717 10712 10714 10720 10719 10718 10723 10723 10721 10728 10732 10732 10727 10722 10722 10721 10716 10711 10710 10709
10575 10579 10589 10595 10601 10608 10613 10621 10623 10633 10636 10643 10648 10656 10657 10663 10672 10671 10674 10677 10681 10684 10688 10694 10696 10695 10698 10696 10701 10701 10701 10704 10705 10706 10713 10714 10717 10711 10707 10704 10702 10702 10694 10690 10693
10555 10556 10560 10571 10578 10584 10592 10599 10599 10605 10613 10619 10630 10637 10637 10648 10650 10650 10655 10654 10663 10665 10667 10671 10676 10679 10680 10676 10680 10682 10682 10684 10687 10687 10695 10694 10706 10695 10690 10687 10684 10682 10682 10675 10673
10527 10533 10533 10544 10555 10560 10564 10569 10575 10576 10583 10603 10606 10621 10617 10624 10630 10629 10633 10634 10643 10645 10644 10657 10654 10659 10659 10659 10655 10664 10658 10665 10669 10666 10676 10671 10693 10680 10670 10664 10667 10666 10664 10661 10659
10503 10510 10513 10517 10529 10536 10539 10544 10558 10552 10554 10580 10588 10595 10597 10599 10610 10604 10607 10612 10622 10622 10626 10635 10634 10634 10639 10638 10636 10642 10642 10643 10648 10646 10653 10658 10657 10663 10654 10646 10646 10652 10650 10641 10641
10483 10489 10493 10498 10501 10513 10518 10522 10533 10525 10535 10555 10560 10570 10570 10576 10578 10590 10586 10588 10598 10600 10608 10609 10612 10618 10611 10618 10619 10617 10621 10620 10623 10624 10635 10635 10631 10655 10623 10636 10633 10632 10625 10630 10622
10459 10464 10471 10475 10481 10492 10492 10500 10504 10505 10518 10530 10535 10551 10545 10550 10556 10560 10564 10567 10570 10577 10583 10584 10586 10588 10596 10597 10596 10594 10595 10597 10598 10600 10616 10604 10615 10627 10596 10614 10613 10611 10612 10609 10613
10428 10438 10450 10452 10462 10465 10468 10473 10484 10498 10496 10507 10513 10518 10523 10529 10531 10534 10540 10543 10545 10556 10556 10562 10560 10566 10574 10576 10568 10572 10570 10571 10568 10574 10580 10584 10599 10591 10575 10588 10591 10591 10588 10588 10587
10405 10412 10425 10433 10438 10443 10442 10448 10475 10470 10476 10491 10485 10491 10496 10505 10508 10511 10516 10518 10523 10529 10531 10536 10535 10547 10548 10548 10547 10547 10543 10547 10542 10549 10547 10560 10567 10561 10555 10550 10570 10571 10568 10561 10561
10378 10391 10398 10410 10417 10417 10414 10433 10447 10454 10462 10463 10462 10466 10470 10480 10486 10487 10492 10501 10504 10505 10509 10511 10509 10521 10524 10527 10523 10518 10519 10518 10519 10518 10522 10538 10542 10548 10533 10526 10545 10551 10542 10537 10542
10350 10361 10375 10384 10393 10389 10395 10421 10420 10435 10440 10439 10440 10442 10443 10455 10459 10463 10463 10480 10480 10486 10488 10487 10495 10489 10504 10503 10496 10502 10497 10497 10498 10502 10502 10509 10520 10522 10515 10505 10517 10519 10511 10514 10518
10324 10332 10354 10354 10361 10361 10383 10397 10399 10407 10413 10412 10415 10417 10424 10427 10433 10435 10437 10446 10465 10464 10462 10468 10469 10472 10478 10475 10475 10471 10473 10468 10478 10481 10476 10482 10488 10502 10486 10487 10493 10490 10487 10494 10500
10298 10310 10322 10322 10329 10340 10370 10371 10370 10376 10390 10386 10389 10397 10403 10405 10407 10410 10412 10424 10434 10435 10441 10448 10448 10451 10458 10453 10442 10448 10444 10452 10453 10456 10460 10442 10458 10471 10459 10465 10460 10448 10448 10460 10470
10270 10283 10292 10299 10304 10316 10337 10344 10348 10354 10359 10364 10365 10374 10377 10377 10384 10382 10387 10400 10406 10403 10415 10417 10426 10430 10438 10428 10404 10419 10425 10432 10429 10423 10429 10424 10421 10434 10442 10425 10423 10416 10414 10419 10424
10240 10255 10269 10277 10286 10294 10301 10316 10320 10327 10332 10337 10342 10349 10350 10354 10358 10361 10365 10372 10379 10381 10385 10386 10398 10397 10410 10404 10388 10385 10393 10416 10406 10400 10391 10400 10386 10395 10401 10394 10393 10388 10383 10380 10380
10220 10230 10242 10250 10256 10265 10275 10285 10292 10302 10309 10312 10316 10320 10324 10330 10332 10337 10345 10346 10352 10359 10357 10360 10367 10367 10380 10370 10359 10359 10382 10386 10370 10367 10352 10358 10366 10365 10350 10357 10362 10358 10350 10350 10346
10196 10206 10209 10222 10234 10237 10249 10261 10265 10275 10282 10286 10292 10298 10300 10304 10315 10313 10320 10322 10327 10330 10336 10334 10333 10332 10358 10335 10328 10341 10374 10350 10340 10327 10326 10332 10331 10330 10321 10319 10320 10323 10321 10317 10318